Location: Bush Observatory
(40.2653°N, 94.3194°W)
Time: 22:32:41
(UTC-05:00)

JAS-2 - Visible Passes

Search period start: 22 August 2014 00:00
Search period end: 01 September 2014 00:00
Orbit: 799 x 1322 km, 98.5° (Epoch: 22 August)

Date Brightness Start Highest point End Pass type
(mag) Time Alt. Az. Time Alt. Az. Time Alt. Az.
22 Aug 13.0 20:36:10 10° W 20:36:56 10° W 20:37:41 10° W visible
24 Aug 12.9 20:30:27 10° WSW 20:32:00 11° W 20:33:32 10° WNW visible
26 Aug 12.8 20:25:02 10° WSW 20:27:04 12° W 20:29:03 10° WNW visible
28 Aug 12.7 20:19:44 10° WSW 20:22:08 12° W 20:24:28 10° WNW visible
